Location: Tierra del Sol
(32.6128°N, 116.3319°W)
Time: 13:01:44
(UTC-07:00)

Amateur Radio Satellites - All Passes

Search period start: 20 September 2017 12:31
Search period end: 21 September 2017 12:31
Location: Tierra del Sol, 32.6128°N, 116.3319°W

Satellite Date Start Highest point End Downlink Frequencies (MHz)
Time Altitude Azimuth
Oscar 19 20 Sep 12:34:56 12:38:46 21° 68° (ENE) 12:42:37 437.125/150
QB50P2 20 Sep 12:39:46 12:43:16 25° 263° (W) 12:46:47 145.880/145.840
YUBILEINY 20 Sep 12:40:43 12:49:23 72° 93° (E) 12:58:02 435.215
NO-84 20 Sep 12:51:30 12:54:42 23° 125° (SE) 12:57:43 435.350 FM
LO-87 20 Sep 12:57:56 12:59:28 12° 291° (WNW) 13:00:59 145.935 - 145.965
VELOX 1 20 Sep 13:01:11 13:05:25 46° 100° (E) 13:09:37 145.980
BUGSAT 1 20 Sep 13:03:28 13:07:27 84° 258° (WSW) 13:11:29 437.445
M-CUBED/EXP-1 PRIME 20 Sep 13:20:04 13:23:26 21° 259° (WSW) 13:26:42 437.505
NANOSAT C BR1 20 Sep 13:22:02 13:22:46 10° 267° (W) 13:23:32 145.865
O/OREOS (USA 219) 20 Sep 13:24:41 13:29:18 90° 283° (WNW) 13:33:54 437.305
SPROUT 20 Sep 13:28:29 13:32:39 54° 285° (WNW) 13:36:50 437.525
Gurwin Techsat 1B 20 Sep 13:28:41 13:33:45 49° 73° (ENE) 13:38:52 435.225
SO-50 20 Sep 13:30:20 13:32:20 13° 108° (ESE) 13:34:20 436.795
50 SAT 20 Sep 13:32:20 13:35:16 29° 99° (E) 13:38:10 437.505
Oscar 19 20 Sep 14:13:00 14:17:47 37° 261° (W) 14:22:36 437.125/150
DX 1 20 Sep 14:21:36 14:25:56 81° 285° (WNW) 14:30:15 434.975-435.025
UKube-1 20 Sep 14:22:18 14:26:33 62° 101° (ESE) 14:30:48 .
NO-84 20 Sep 14:28:40 14:32:01 28° 316° (NW) 14:35:08 435.350 FM
RS-15 20 Sep 14:31:48 14:43:10 47° 52° (NE) 14:53:52 29.354- 29.394
PCSat 20 Sep 14:33:32 14:38:19 32° 108° (ESE) 14:43:05 145.827
VELOX 1 20 Sep 14:39:29 14:41:24 13° 293° (WNW) 14:43:19 145.980
YUBILEINY 20 Sep 14:40:59 14:46:52 20° 290° (WNW) 14:52:47 435.215
AO-7 20 Sep 14:49:42 14:57:39 51° 67° (ENE) 15:05:35 .
ITUPSAT 1 20 Sep 14:50:29 14:52:19 12° 93° (E) 14:54:09 437.325
MOZHAYETS 4 20 Sep 14:54:40 14:56:59 14° 93° (E) 14:59:16
SO-50 20 Sep 15:07:59 15:12:19 49° 301° (WNW) 15:16:41 436.795
ITAMSAT 1 20 Sep 15:09:54 15:14:46 43° 72° (ENE) 15:19:37 435.822/435.867
Gurwin Techsat 1B 20 Sep 15:10:40 15:13:53 16° 266° (W) 15:17:07 435.225
BEESAT 20 Sep 15:27:24 15:31:44 33° 98° (E) 15:36:03 436.000
PCSat 20 Sep 16:17:02 16:21:38 28° 303° (WNW) 16:26:16 145.827
ITUPSAT 1 20 Sep 16:25:41 16:30:22 54° 286° (WNW) 16:35:02 437.325
MOZHAYETS 4 20 Sep 16:29:52 16:34:17 45° 286° (WNW) 16:38:40
AO-7 20 Sep 16:43:28 16:50:31 30° 262° (W) 16:57:36 .
RS-15 20 Sep 16:44:35 16:55:27 46° 252° (WSW) 17:05:50 29.354- 29.394
CUBESAT XI-V 20 Sep 16:46:44 16:51:13 49° 99° (E) 16:55:40 437.345
DOVE 4 20 Sep 16:47:26 16:51:31 32° 74° (ENE) 16:55:25 437.250
ITAMSAT 1 20 Sep 16:50:57 16:54:20 18° 265° (W) 16:57:45 435.822/435.867
BEESAT 20 Sep 17:05:45 17:09:14 20° 292° (WNW) 17:12:42 436.000
KKS-1 20 Sep 17:15:15 17:19:15 32° 98° (E) 17:23:14 437.445
XW-2D 20 Sep 17:24:44 17:27:35 20° 71° (ENE) 17:30:26 145.860 - 145.880
XW-2B 20 Sep 17:36:30 17:39:45 27° 73° (ENE) 17:43:02 145.730 - 145.750
XW-2F 20 Sep 17:39:17 17:42:34 28° 73° (ENE) 17:45:52 145.980 - 146.000
STARS 20 Sep 17:49:29 17:53:23 30° 98° (E) 17:57:16 437.465
HO-68 20 Sep 17:51:15 17:56:11 21° 62° (ENE) 18:01:08 435.675
XW-2C 20 Sep 17:57:06 18:00:49 53° 76° (ENE) 18:04:35 145.795 - 145.815
LilacSat-2 20 Sep 18:05:06 18:08:57 77° 77° (ENE) 18:12:50 437.200
CUTE-I 20 Sep 18:12:12 18:17:28 69° 75° (ENE) 18:22:45 437.470
NUDT-PHONESAT 20 Sep 18:13:38 18:17:18 62° 76° (ENE) 18:21:01 437.300
CUBESAT XI-V 20 Sep 18:26:00 18:28:05 13° 293° (WNW) 18:30:10 437.345
DOVE 4 20 Sep 18:26:09 18:29:12 17° 264° (W) 18:32:08 437.250
SEEDS 20 Sep 18:31:28 18:33:44 14° 68° (ENE) 18:35:59 437.485
KAITUO 1B 20 Sep 18:36:35 18:40:18 57° 260° (W) 18:44:03 145.475/437.950
JUGNU 20 Sep 18:36:55 18:38:44 11° 163° (SSE) 18:40:33 437.505
CUBEBUG 2 20 Sep 18:46:13 18:49:06 18° 69° (ENE) 18:52:03 437.445
CUTE 1.7 + AOD 2 20 Sep 18:50:50 18:54:52 41° 74° (ENE) 18:58:54 437.475
KKS-1 20 Sep 18:52:31 18:55:31 18° 291° (WNW) 18:58:30 437.445
Tancredo 1 20 Sep 18:58:06 18:59:06 12° 127° (SE) 19:00:06 437.200
XW-2D 20 Sep 18:58:42 19:01:36 20° 264° (W) 19:04:31 145.860 - 145.880
UWE-3 20 Sep 19:00:44 19:03:12 15° 68° (ENE) 19:05:42 435.000/436.395/437.385
AAUSAT CUBESAT 2 20 Sep 19:04:27 19:06:44 14° 69° (ENE) 19:09:01 437.432
XW-2B 20 Sep 19:11:39 19:13:54 15° 266° (W) 19:16:10 145.730 - 145.750
XW-2F 20 Sep 19:14:32 19:16:40 14° 266° (W) 19:18:50 145.980 - 146.000
XW-2A 20 Sep 19:21:13 19:24:19 34° 74° (ENE) 19:27:27 145.665 - 145.685
STARS 20 Sep 19:26:24 19:29:27 19° 291° (WNW) 19:32:31 437.465
HO-68 20 Sep 19:36:10 19:43:14 65° 257° (WSW) 19:50:21 435.675
AO-73 20 Sep 19:53:46 19:57:28 29° 72° (ENE) 20:01:16 145.935
ZACube-1 20 Sep 19:54:23 19:58:14 34° 73° (ENE) 20:02:11 437.345
CUTE-I 20 Sep 19:56:35 19:57:53 11° 268° (W) 19:59:12 437.470
Oscar 11 20 Sep 19:57:11 20:00:35 23° 71° (ENE) 20:04:00 .
SEEDS 20 Sep 20:05:05 20:09:02 37° 262° (W) 20:13:00 437.485
STRAND 1 20 Sep 20:09:34 20:14:44 78° 103° (ESE) 20:19:52 437.568
nSIGHT-1 20 Sep 20:17:19 20:19:18 15° 127° (SE) 20:21:19 .
CUBEBUG 2 20 Sep 20:21:54 20:25:28 27° 263° (W) 20:29:09 437.445
JUGNU 20 Sep 20:22:51 20:27:05 20° 172° (S) 20:31:17 437.505
CUTE 1.7 + AOD 2 20 Sep 20:29:00 20:30:49 12° 267° (W) 20:32:39 437.475
Tancredo 1 20 Sep 20:31:00 20:33:25 29° 320° (NW) 20:35:51 437.200
BEESAT 2 20 Sep 20:32:25 20:36:01 34° 113° (ESE) 20:39:41 435.950
BEESAT 3 20 Sep 20:32:36 20:36:30 57° 300° (WNW) 20:40:29 437.485
AO-85 20 Sep 20:34:33 20:38:13 39° 114° (ESE) 20:41:53 145.980
UWE-3 20 Sep 20:35:26 20:39:18 35° 263° (W) 20:43:15 435.000/436.395/437.385
AAUSAT CUBESAT 2 20 Sep 20:38:00 20:41:50 35° 262° (W) 20:45:40 437.432
DELFI C3 20 Sep 21:02:23 21:05:39 25° 72° (ENE) 21:08:57 145.870
NO-84 20 Sep 21:06:17 21:08:07 15° 40° (NE) 21:09:56 435.350 FM
ISS 20 Sep 21:06:27 21:09:39 57° 133° (SE) 21:12:52 437.550
FO-29 20 Sep 21:06:36 21:11:24 29° 99° (E) 21:16:39 435.910
Max Valier Satellite 20 Sep 21:13:10 21:16:09 24° 72° (ENE) 21:19:09 145.860
AO-73 20 Sep 21:30:48 21:33:42 18° 266° (W) 21:36:39 145.935
ZACube-1 20 Sep 21:32:05 21:34:35 15° 267° (W) 21:37:08 437.345
Oscar 11 20 Sep 21:33:03 21:36:33 24° 264° (W) 21:40:05 .
TIGRISAT 20 Sep 21:33:32 21:35:56 14° 93° (E) 21:38:20 435.000
SRMSAT 20 Sep 21:43:05 21:45:32 13° 164° (SSE) 21:47:59 437.500
nSIGHT-1 20 Sep 21:52:26 21:55:23 33° 320° (NW) 21:58:22 .
STRAND 1 20 Sep 21:52:35 21:53:11 10° 297° (WNW) 21:53:47 437.568
JUGNU 20 Sep 22:10:56 22:15:29 23° 182° (S) 22:20:01 437.505
BEESAT 2 20 Sep 22:11:16 22:13:51 16° 308° (NW) 22:16:28 435.950
AO-85 20 Sep 22:16:52 22:18:45 13° 309° (NW) 22:20:40 145.980
EO-88 20 Sep 22:20:33 22:24:05 49° 260° (W) 22:27:40 145.990 - 145.960
DELFI C3 20 Sep 22:37:42 22:40:21 17° 265° (W) 22:43:00 145.870
NO-84 20 Sep 22:43:08 22:45:25 22° 235° (SW) 22:47:42 435.350 FM
UNISAT 6 20 Sep 22:43:28 22:48:09 81° 284° (WNW) 22:52:51 437.425
ISS 20 Sep 22:44:39 22:46:23 14° 328° (NNW) 22:48:07 437.550
Max Valier Satellite 20 Sep 22:47:36 22:49:54 16° 265° (W) 22:52:14 145.860
FO-29 20 Sep 22:51:40 22:56:24 30° 289° (WNW) 23:01:34 435.910
YUBILEINY 20 Sep 22:57:23 23:04:35 28° 74° (ENE) 23:11:46 435.215
PRISM 20 Sep 23:04:42 23:08:46 87° 282° (WNW) 23:12:49 437.425
TIGRISAT 20 Sep 23:08:18 23:12:45 46° 286° (WNW) 23:17:14 435.000
ESTCUBE 1 20 Sep 23:10:36 23:14:55 46° 74° (ENE) 23:19:16 437.505/2401.250
LO-87 20 Sep 23:27:17 23:30:46 60° 260° (W) 23:34:16 145.935 - 145.965
AIST 2D 20 Sep 23:27:30 23:30:35 28° 97° (E) 23:33:37 435.315
PCSat 20 Sep 23:27:57 23:29:41 11° 49° (NE) 23:31:24 145.827
SRMSAT 20 Sep 23:29:43 23:34:03 21° 173° (S) 23:38:23 437.500
NANOSAT C BR1 20 Sep 23:34:07 23:35:05 11° 93° (E) 23:36:02 145.865
SO-50 20 Sep 23:43:14 23:47:35 40° 58° (ENE) 23:51:57 436.795
VELOX 1 20 Sep 23:54:21 23:57:51 23° 70° (ENE) 00:01:21 145.980
JUGNU 21 Sep 00:00:08 00:03:52 17° 192° (SSW) 00:07:35 437.505
DUCHIFAT 1 21 Sep 00:02:13 00:05:32 22° 96° (E) 00:08:50 145.980
POLYITAN 1 21 Sep 00:10:36 00:14:35 36° 99° (E) 00:18:32 437.675
EO-79 21 Sep 00:15:44 00:19:48 42° 99° (E) 00:23:51 145.935-145.965
SPROUT 21 Sep 00:16:46 00:20:55 60° 75° (ENE) 00:25:05 437.525
QB50P2 21 Sep 00:28:02 00:32:19 70° 102° (ESE) 00:36:34 145.880/145.840
ESTCUBE 1 21 Sep 00:49:52 00:51:53 13° 267° (W) 00:53:54 437.505/2401.250
BUGSAT 1 21 Sep 00:50:11 00:53:14 19° 96° (E) 00:56:18 437.445
YUBILEINY 21 Sep 00:53:15 01:01:37 53° 270° (W) 01:10:00 435.215
AIST 2D 21 Sep 01:02:01 01:03:25 12° 290° (WNW) 01:04:50 435.315
M-CUBED/EXP-1 PRIME 21 Sep 01:02:18 01:05:17 31° 103° (ESE) 01:08:13 437.505
NANOSAT C BR1 21 Sep 01:06:52 01:10:58 47° 286° (WNW) 01:15:03 145.865
PCSat 21 Sep 01:08:20 01:13:46 90° 263° (W) 01:19:11 145.827
DX 1 21 Sep 01:12:23 01:16:32 46° 74° (ENE) 01:20:41 434.975-435.025
UKube-1 21 Sep 01:12:27 01:16:08 28° 71° (ENE) 01:19:49 .
SRMSAT 21 Sep 01:18:04 01:22:36 23° 183° (S) 01:27:09 437.500
SO-50 21 Sep 01:24:43 01:27:41 17° 251° (WSW) 01:30:40 436.795
50 SAT 21 Sep 01:29:25 01:32:42 67° 259° (W) 01:35:59 437.505
VELOX 1 21 Sep 01:30:34 01:34:08 24° 263° (W) 01:37:43 145.980
DUCHIFAT 1 21 Sep 01:37:40 01:41:04 24° 289° (WNW) 01:44:29 145.980
POLYITAN 1 21 Sep 01:47:33 01:49:59 15° 292° (WNW) 01:52:26 437.675
Gurwin Techsat 1B 21 Sep 01:49:51 01:54:23 28° 97° (E) 01:58:53 435.225
EO-79 21 Sep 01:53:11 01:55:08 13° 293° (WNW) 01:57:05 145.935-145.965
O/OREOS (USA 219) 21 Sep 01:54:46 01:57:46 18° 100° (E) 02:00:47 437.305
BUGSAT 1 21 Sep 02:25:00 02:28:30 26° 288° (WNW) 02:32:02 437.445
Oscar 19 21 Sep 02:28:42 02:33:52 74° 284° (WNW) 02:38:58 437.125/150
BEESAT 21 Sep 02:29:43 02:33:29 24° 69° (ENE) 02:37:16 436.000
UKube-1 21 Sep 02:49:03 02:52:06 19° 264° (W) 02:55:09 .
DX 1 21 Sep 02:51:27 02:52:53 11° 267° (W) 02:54:18 434.975-435.025
Tancredo 1 21 Sep 02:54:42 02:56:41 18° 37° (NE) 02:58:39 437.200
AO-7 21 Sep 02:57:52 03:03:37 20° 95° (E) 03:09:19 .
SRMSAT 21 Sep 03:07:36 03:11:09 16° 193° (SSW) 03:14:43 437.500
MOZHAYETS 4 21 Sep 03:26:31 03:31:07 82° 260° (W) 03:35:46
ITUPSAT 1 21 Sep 03:27:28 03:32:13 79° 257° (WSW) 03:37:02 437.325
ITAMSAT 1 21 Sep 03:27:52 03:31:51 22° 96° (E) 03:35:50 435.822/435.867
Gurwin Techsat 1B 21 Sep 03:29:41 03:34:12 29° 291° (WNW) 03:38:42 435.225
O/OREOS (USA 219) 21 Sep 03:32:51 03:36:51 32° 294° (WNW) 03:40:54 437.305
ISS 21 Sep 03:39:27 03:40:27 11° 29° (NNE) 03:41:29 437.550
CUBESAT XI-V 21 Sep 03:45:32 03:49:36 29° 71° (ENE) 03:53:39 437.345
BEESAT 21 Sep 04:07:02 04:11:05 28° 263° (W) 04:15:09 436.000
KKS-1 21 Sep 04:09:43 04:12:40 18° 69° (ENE) 04:15:39 437.445
nSIGHT-1 21 Sep 04:23:07 04:25:57 27° 38° (NE) 04:28:48 .
Tancredo 1 21 Sep 04:29:03 04:31:11 21° 231° (SW) 04:33:18 437.200
STARS 21 Sep 04:42:42 04:45:21 16° 68° (ENE) 04:48:00 437.465
RS-15 21 Sep 04:48:03 04:59:17 46° 107° (ESE) 05:10:40 29.354- 29.394
AO-7 21 Sep 04:48:37 04:56:51 70° 290° (WNW) 05:05:03 .
DOVE 4 21 Sep 04:52:13 04:53:32 11° 94° (E) 04:54:51 437.250
BEESAT 3 21 Sep 04:54:09 04:57:01 19° 53° (NE) 04:59:50 437.485
ITAMSAT 1 21 Sep 05:06:37 05:11:19 35° 289° (WNW) 05:16:00 435.822/435.867
AO-85 21 Sep 05:10:27 05:12:35 13° 51° (NE) 05:14:47 145.980
ISS 21 Sep 05:14:02 05:17:20 84° 222° (SW) 05:20:36 437.550
CUBESAT XI-V 21 Sep 05:23:17 05:26:53 22° 265° (W) 05:30:31 437.345
KKS-1 21 Sep 05:44:58 05:48:56 32° 262° (W) 05:52:55 437.445
LilacSat-2 21 Sep 05:44:59 05:46:12 11° 93° (E) 05:47:24 437.200
nSIGHT-1 21 Sep 05:59:42 06:02:08 20° 232° (SW) 06:04:35 .
KAITUO 1B 21 Sep 06:12:55 06:15:31 18° 95° (E) 06:18:05 145.475/437.950
STARS 21 Sep 06:17:23 06:21:21 35° 261° (W) 06:25:21 437.465
DOVE 4 21 Sep 06:27:18 06:31:21 45° 285° (WNW) 06:35:34 437.250
BEESAT 3 21 Sep 06:31:11 06:34:33 27° 248° (WSW) 06:37:51 437.485
BEESAT 2 21 Sep 06:31:13 06:35:14 73° 60° (ENE) 06:39:11 435.950
CUTE-I 21 Sep 06:33:58 06:38:58 40° 99° (E) 06:43:57 437.470
XW-2D 21 Sep 06:34:30 06:38:14 53° 100° (E) 06:41:56 145.860 - 145.880
AO-7 21 Sep 06:45:13 06:48:07 12° 308° (NW) 06:51:01 .
XW-2B 21 Sep 06:46:42 06:50:31 77° 102° (ESE) 06:54:17 145.730 - 145.750
AO-85 21 Sep 06:48:44 06:53:16 64° 244° (WSW) 06:58:08 145.980
XW-2F 21 Sep 06:49:02 06:52:49 79° 101° (ESE) 06:56:34 145.980 - 146.000
RS-15 21 Sep 06:59:55 07:11:37 50° 306° (NW) 07:23:30 29.354- 29.394
XW-2C 21 Sep 07:08:00 07:11:41 50° 285° (WNW) 07:15:21 145.795 - 145.815
HO-68 21 Sep 07:09:17 07:15:34 32° 98° (E) 07:21:50 435.675
LilacSat-2 21 Sep 07:17:03 07:20:33 35° 286° (WNW) 07:24:03 437.200
STRAND 1 21 Sep 07:20:49 07:25:52 69° 75° (ENE) 07:30:56 437.568
NUDT-PHONESAT 21 Sep 07:21:54 07:25:30 46° 285° (WNW) 07:29:03 437.300
KAITUO 1B 21 Sep 07:46:30 07:49:23 21° 288° (WNW) 07:52:15 145.475/437.950
ZACube-1 21 Sep 07:49:58 07:50:31 10° 91° (E) 07:51:04 437.345
SEEDS 21 Sep 07:52:59 07:57:02 46° 99° (E) 08:01:01 437.485
CUTE-I 21 Sep 08:14:48 08:18:41 21° 293° (WNW) 08:22:34 437.470
CUTE 1.7 + AOD 2 21 Sep 08:15:36 08:19:42 49° 285° (WNW) 08:23:45 437.475
CUBEBUG 2 21 Sep 08:15:48 08:20:31 82° 102° (ESE) 08:25:16 437.445
XW-2A 21 Sep 08:19:19 08:22:45 75° 101° (ESE) 08:26:08 145.665 - 145.685
AAUSAT CUBESAT 2 21 Sep 08:24:07 08:28:04 45° 99° (E) 08:31:59 437.432
UWE-3 21 Sep 08:28:36 08:33:14 64° 100° (E) 08:37:52 435.000/436.395/437.385
HO-68 21 Sep 08:56:40 09:03:15 40° 292° (WNW) 09:09:50 435.675
FO-29 21 Sep 08:58:35 09:04:33 65° 75° (ENE) 09:09:55 435.910
AO-73 21 Sep 09:21:20 09:25:53 68° 284° (WNW) 09:30:24 145.935
RS-15 21 Sep 09:21:48 09:28:13 15° 335° (NNW) 09:34:38 29.354- 29.394
ZACube-1 21 Sep 09:22:33 09:27:04 58° 284° (WNW) 09:31:32 437.345
Oscar 11 21 Sep 09:23:40 09:28:01 87° 102° (ESE) 09:32:20 .
SEEDS 21 Sep 09:31:01 09:32:14 11° 293° (WNW) 09:33:26 437.485
UNISAT 6 21 Sep 09:37:44 09:41:50 48° 75° (ENE) 09:46:04 437.425
PRISM 21 Sep 09:49:23 09:53:05 33° 73° (ENE) 09:56:46 437.425
EO-88 21 Sep 09:54:17 09:56:50 18° 95° (E) 09:59:22 145.990 - 145.960
AAUSAT CUBESAT 2 21 Sep 10:01:59 10:03:03 11° 293° (WNW) 10:04:07 437.432
TIGRISAT 21 Sep 10:02:01 10:06:18 88° 68° (ENE) 10:10:41 435.000
UWE-3 21 Sep 10:08:03 10:09:05 11° 294° (WNW) 10:10:07 435.000/436.395/437.385
DELFI C3 21 Sep 10:17:22 10:21:16 80° 101° (ESE) 10:25:10 145.870
Max Valier Satellite 21 Sep 10:20:12 10:23:54 62° 100° (E) 10:27:35 145.860
FO-29 21 Sep 10:47:21 10:49:49 13° 265° (W) 10:52:11 435.910
LO-87 21 Sep 10:59:43 11:01:36 14° 95° (E) 11:03:30 145.935 - 145.965
POLYITAN 1 21 Sep 10:59:50 11:02:20 16° 69° (ENE) 11:04:51 437.675
EO-79 21 Sep 11:04:32 11:07:21 18° 69° (ENE) 11:10:11 145.935-145.965
ESTCUBE 1 21 Sep 11:09:08 11:11:24 14° 94° (E) 11:13:39 437.505/2401.250
QB50P2 21 Sep 11:16:20 11:19:55 27° 72° (ENE) 11:23:29 145.880/145.840
UNISAT 6 21 Sep 11:17:47 11:18:48 11° 268° (W) 11:19:48 437.425
PRISM 21 Sep 11:26:08 11:28:24 14° 265° (W) 11:30:38 437.425
EO-88 21 Sep 11:27:37 11:30:22 20° 288° (WNW) 11:33:05 145.990 - 145.960
AIST 2D 21 Sep 11:29:24 11:32:55 69° 259° (W) 11:36:28 435.315
M-CUBED/EXP-1 PRIME 21 Sep 11:43:12 11:46:49 25° 68° (ENE) 11:50:16 437.505
RS-15 21 Sep 11:44:52 11:48:54 12° 15° (NNE) 11:52:51 29.354- 29.394
YUBILEINY 21 Sep 11:52:25 12:00:09 37° 87° (E) 12:07:53 435.215
NANOSAT C BR1 21 Sep 11:53:50 11:57:57 65° 76° (ENE) 12:02:06 145.865
SPROUT 21 Sep 12:08:11 12:10:33 14° 94° (E) 12:12:55 437.525
O/OREOS (USA 219) 21 Sep 12:08:37 12:11:46 18° 62° (ENE) 12:14:55 437.305
NO-84 21 Sep 12:18:02 12:20:43 17° 124° (SE) 12:23:18 435.350 FM
